User: anonymous   Login
Location: Lourdes
(43.1000°N, 0.0500°W)
Time: 09:34:40
(UTC+00:00)
Language:

Cosmos 1606 - Orbit

View from above orbital plane
View from above orbital plane
View from above satellite
View from above satellite

Ground track
Ground track

The orbit data is extracted from the following two-line orbital elements,

1 15369U 84111A   21065.68450147  .00000803  00000-0  38884-4 0  9994
2 15369  82.5269 224.7098 0016350 219.2608 140.7441 15.16996567986327
Epoch (UTC): 06 March 2021 16:25:40
Eccentricity: 0.0016350
inclination: 82.5269°
perigee height: 503 km
apogee height: 526 km
right ascension of ascending node: 224.7098°
argument of perigee: 219.2608°
revolutions per day: 15.16996567
mean anomaly at epoch: 140.7441°
orbit number at epoch: 98632

The dashed part of the orbit path shows where the satellite is in the earth's shadow,  

DLR